Regional Weather Roundup
Issued by NWS

Home | Current Version | Previous Version | Text Only | Print | Product List | Glossary On
Versions: 1 2 3 4 5 6 7 8 9 10 11 12 13 14 15 16 17 18 19 20 21 22 23 24 25 26 27 28 29 30 31 32 33 34 35 36 37 38 39 40 41 42 43 44 45 46 47 48 49 50
000
ASUS43 KLOT 061203
RWRIL

ILLINOIS REGIONAL WEATHER ROUNDUP
NATIONAL WEATHER SERVICE CHICAGO/ROMEOVILLE IL
700 AM CDT FRI MAY 06 2016

NOTE: "FAIR" INDICATES FEW OR NO CLOUDS BELOW 12,000 FEET WITH NO
SIGNIFICANT WEATHER AND/OR OBSTRUCTIONS TO VISIBILITY.

* THESE STATIONS ARE NOT UNDER NWS QUALITY CONTROL. THEY ALSO MAY NOT
  REPORT WEATHER SUCH AS PRECIPITATION OR FOG.

ILZ001-002-007-009-015-016-024-061300-
NORTHWEST ILLINOIS

CITY           SKY/WX    TMP DP  RH WIND       PRES   REMARKS
MOLINE         SUNNY     47  42  83 CALM      30.00R
6HR MIN TEMP:  42; 6HR MAX TEMP:  47;

STERLING*      CLOUDY    48  45  87 CALM      30.02R
$$

ILZ003-004-008-010-011-017-018-061300-
NORTH CENTRAL ILLINOIS

CITY           SKY/WX    TMP DP  RH WIND       PRES   REMARKS
ROCKFORD       CLOUDY    50  41  71 SW5       30.02R
6HR MIN TEMP:  44; 6HR MAX TEMP:  50;

FREEPORT*      SUNNY     48  39  69 CALM      30.01R
DE KALB*       CLOUDY    54  40  59 W7        30.01R
$$

ILZ005-006-012>014-019>023-061300-
NORTHEAST ILLINOIS

CITY           SKY/WX    TMP DP  RH WIND       PRES   REMARKS
CHICAGO-OHARE  CLOUDY    52  43  71 SW3       29.99R
6HR MIN TEMP:  42; 6HR MAX TEMP:  52;

CHICAGO-MIDWAY CLOUDY    52  43  71 CALM      29.99R
6HR MIN TEMP:  46; 6HR MAX TEMP:  52;

AURORA         CLOUDY    47  43  86 W6        30.01R
6HR MIN TEMP:  40; 6HR MAX TEMP:  47;

LANSING*       SUNNY     44  40  85 CALM      30.01R
WAUKEGAN       CLOUDY    52  42  69 VRB3      29.97S
6HR MIN TEMP:  40; 6HR MAX TEMP:  52; 6HR PCP: TRACE;

DUPAGE AIRPORT CLOUDY    49  42  77 CALM      29.99R
6HR MIN TEMP:  42; 6HR MAX TEMP:  50;

WHEELING       CLOUDY    50  44  80 S3        29.99R
6HR MIN TEMP:  40; 6HR MAX TEMP:  50;

NORTHERLY ISL    N/A     53  40  61 W10         N/A
NORTHERLY ISL    N/A     53  40  61 W10         N/A
$$

LMZ740>746-061300-
SOUTHERN LAKE MICHIGAN

STATION/POSITION SKY/WX   TEMP    WIND        PRES    VSBY  WAVE
                          AIR SEA DIR/SP/G                  HT/PER
                          (F)     (DEG/KT/KT) (MB)    (MI)  (FT/S)
SOUTHERN BUOY              44 40  220/  6/  8 1014.8          1
WILMETTE HARBOR            49 44  280/  2/  6   N/A           1/ 5
HARRISON CRIB              54     260/  9/ 10   N/A
BURNHAM HARBOR             54     250/  9/ 12   N/A
CALUMET HARBOR             47     220/  3/  5 1014.6R
BURNS HARBOR               44     190/  6/  7 1015.9S
MICHIGAN CITY              44     160/  3/  3   N/A
ST. JOSEPH                 46 47                N/A           1/ 4
$$

ILZ025>027-034>036-040-047-049-050-058-095>099-061300-
WEST-CENTRAL ILLINOIS

CITY           SKY/WX    TMP DP  RH WIND       PRES   REMARKS
QUINCY         SUNNY     48  42  80 SW6       30.05R
MACOMB*        SUNNY     48  41  77 W6        30.06R
$$

ILZ028>032-037-038-041>044-048-051>054-059>061-061300-
CENTRAL ILLINOIS

CITY           SKY/WX    TMP DP  RH WIND       PRES   REMARKS
BLOOMINGTON    CLOUDY    50  42  73 W8        30.05R
DECATUR        SUNNY     49  42  77 W6        30.04R
PEORIA         SUNNY     45  40  82 CALM      30.04R
6HR MIN TEMP:  43; 6HR MAX TEMP:  47;

SPRINGFIELD    SUNNY     47  43  86 SW3       30.05R
6HR MIN TEMP:  44; 6HR MAX TEMP:  48;

TAYLORVILLE    NOT AVBL
$$

ILZ033-039-045-046-055>057-062-063-061300-
EAST-CENTRAL ILLINOIS

CITY           SKY/WX    TMP DP  RH WIND       PRES   REMARKS
CHAMPAIGN      SUNNY     47  43  86 W5        30.03R
MATTOON        SUNNY     48  42  80 W6        30.03R
$$

ILZ079-100>102-061300-
SOUTHWEST ILLINOIS

CITY           SKY/WX    TMP DP  RH WIND       PRES   REMARKS
ALTON          SUNNY     45  44  97 CALM      30.07R
CAHOKIA*       SUNNY     47  44  90 CALM      30.07R
SPARTA*        SUNNY     48  44  84 W5        30.07R
$$

ILZ064>066-069>071-074>076-080>082-084>086-088>090-092>094-061300-
SOUTH-CENTRAL ILLINOIS

CITY           SKY/WX    TMP DP  RH WIND       PRES   REMARKS
CARBONDALE     SUNNY     46  44  93 CALM      30.06R
6HR MIN TEMP:  43; 6HR MAX TEMP:  48;

MARION         SUNNY     46  45  93 SW3       30.06R
MT. VERNON     SUNNY     45  39  81 CALM      30.06R
SALEM*         SUNNY     48  46  93 CALM      30.05R FOG
$$

ILZ067-068-072-073-078-083-087-091-061300-
SOUTHEAST ILLINOIS

CITY           SKY/WX    TMP DP  RH WIND       PRES   REMARKS
LAWRENCEVILLE  SUNNY     49  46  90 NW6       30.03R
FLORA*         SUNNY     48  46  92 CALM      30.04R
HARRISBURG*    SUNNY     46  46  98 CALM      30.06R
ROBINSON*      SUNNY     44  44  99 CALM      30.04R
$$

ABBREVIATIONS USED IN REMARKS
   TC - TEMPERATURE IN CELSIUS
  WCI - WIND CHILL INDEX
   HX - HEAT INDEX
  VSB - VISIBILITY
$$





USA.gov is the U.S. government's official web portal to all federal, state and local government web resources and services.